GW3985 Weather Reports


time (UTC)temp
F
wind
direction
speed
knots
gust
knots
rain 1hr
in
rain 24hr
in
rain mn
in
humidity
%
barometer
mb
20260831135015 65 133 0.0 1.7 0.00 0.02 0.00 59 1027.0
20260831134015 64 143 0.0 1.7 0.00 0.02 0.00 61 1026.7
20260831133018 63 148 0.0 1.7 0.00 0.02 0.00 61 1026.7
20260831132016 63 136 0.0 1.7 0.00 0.02 0.00 62 1026.7
20260831131036 62 136 0.0 1.7 0.00 0.02 0.00 62 1026.6
20260831125517 62 136 0.0 0.9 0.00 0.02 0.00 62 1026.3
20260831124515 62 136 0.0 0.9 0.00 0.02 0.00 63 1026.2
20260831123535 62 141 0.0 0.9 0.00 0.02 0.00 63 1026.1
20260831122535 62 140 0.0 0.9 0.00 0.02 0.00 63 1026.0
20260831121516 62 142 0.0 1.7 0.00 0.02 0.00 64 1026.0
20260831120516 62 140 0.0 0.9 0.00 0.02 0.00 64 1026.0
20260831115537 62 140 0.0 0.9 0.00 0.02 0.00 64 1025.8
20260831114517 62 146 0.0 1.7 0.00 0.02 0.00 64 1025.8
20260831113535 62 0.0 0.0 0.00 0.02 0.00 64 1025.8
20260831112515 62 137 0.0 0.9 0.00 0.02 0.00 64 1025.7
20260831111515 62 136 0.9 1.7 0.00 0.02 0.00 65 1025.7
20260831110516 62 136 0.0 0.9 0.00 0.02 0.00 65 1025.6
20260831105516 62 136 0.0 0.9 0.00 0.02 0.00 64 1025.5
20260831104517 62 136 0.0 0.9 0.00 0.02 0.00 64 1025.6
20260831103517 62 137 0.0 0.9 0.00 0.02 0.00 64 1025.6
20260831102535 62 137 0.0 1.7 0.00 0.02 0.00 64 1025.5
20260831101515 62 137 0.0 0.9 0.00 0.02 0.00 65 1025.4
20260831100516 62 139 0.0 0.9 0.00 0.02 0.00 65 1025.3
20260831095516 62 139 0.0 0.9 0.00 0.02 0.00 66 1025.3
20260831094536 62 149 0.9 1.7 0.00 0.02 0.00 66 1025.3
20260831093517 62 136 0.0 0.9 0.00 0.02 0.00 66 1025.4
20260831092515 62 148 0.9 2.6 0.00 0.02 0.00 66 1025.2
20260831091515 63 143 0.0 1.7 0.00 0.02 0.00 66 1025.2
20260831090515 63 142 0.0 1.7 0.00 0.02 0.00 65 1025.2
20260831085556 63 142 0.9 3.5 0.00 0.02 0.00 65 1025.1
20260831084516 63 140 0.9 2.6 0.00 0.02 0.00 66 1025.3
20260831083516 62 145 0.9 3.5 0.00 0.02 0.00 66 1025.4
20260831082537 62 140 0.0 1.7 0.00 0.02 0.00 67 1025.5
20260831081515 63 140 0.0 0.9 0.00 0.02 0.00 67 1025.5
20260831080535 63 140 0.0 1.7 0.00 0.02 0.00 67 1025.6
20260831075535 63 140 0.0 1.7 0.00 0.02 0.00 67 1025.8
20260831074516 63 150 0.0 1.7 0.00 0.02 0.00 68 1025.8
20260831073516 63 146 0.0 1.7 0.00 0.02 0.00 67 1025.8
20260831072517 63 141 0.9 2.6 0.00 0.02 0.00 67 1025.7
20260831071517 63 145 0.0 1.7 0.00 0.02 0.00 67 1025.8
20260831070535 63 141 0.9 3.5 0.00 0.02 0.00 67 1026.0
20260831065515 63 141 0.9 2.6 0.00 0.02 0.00 68 1026.2
20260831064515 63 141 0.9 1.7 0.00 0.02 0.00 68 1026.2
20260831063516 63 144 0.9 3.5 0.00 0.02 0.00 68 1026.4
20260831062516 63 139 0.9 3.5 0.00 0.02 0.00 69 1026.4
20260831061537 63 142 1.7 4.3 0.00 0.02 0.00 69 1026.6
20260831060517 64 145 0.9 3.5 0.00 0.02 0.00 69 1026.8
20260831055515 64 144 0.9 2.6 0.00 0.02 0.02 69 1026.8
20260831054515 64 127 0.0 0.9 0.00 0.02 0.02 69 1027.0
20260831053516 64 127 0.0 0.9 0.00 0.02 0.02 69 1026.9
20260831052516 64 0.0 0.0 0.00 0.02 0.02 69 1027.0
20260831051517 64 127 0.0 0.9 0.00 0.02 0.02 69 1026.9
20260831050517 65 125 0.0 0.9 0.00 0.02 0.02 68 1026.8
20260831045537 65 148 0.9 2.6 0.00 0.02 0.02 67 1027.2
20260831044515 66 141 1.7 5.2 0.00 0.02 0.02 68 1026.8
20260831043515 67 136 0.9 3.5 0.00 0.02 0.02 66 1027.2
20260831042516 67 145 0.9 3.5 0.00 0.02 0.02 65 1026.9
20260831041536 67 142 0.9 3.5 0.00 0.02 0.02 66 1026.6
20260831040517 66 142 0.9 2.6 0.00 0.02 0.02 67 1026.2
20260831035517 66 142 0.9 1.7 0.00 0.02 0.02 67 1025.8
20260831034515 65 142 1.7 4.3 0.00 0.02 0.02 70 1025.9
20260831033535 65 132 0.9 2.6 0.00 0.02 0.02 74 1026.0
20260831032516 64 0.0 0.0 0.00 0.02 0.02 77 1026.1
20260831031516 64 145 0.9 1.7 0.00 0.02 0.02 77 1026.5
20260831030516 64 143 0.9 3.5 0.00 0.02 0.02 77 1026.4
20260831025516 64 141 0.0 1.7 0.00 0.02 0.02 78 1026.3
20260831024517 64 141 0.9 4.3 0.00 0.02 0.02 78 1026.1
20260831023535 64 142 0.0 2.6 0.00 0.02 0.02 78 1025.8
20260831022515 64 140 0.9 3.5 0.00 0.02 0.02 78 1025.5
20260831021536 64 136 0.9 2.6 0.00 0.02 0.02 79 1025.3
20260831020536 64 132 0.0 0.9 0.00 0.02 0.02 79 1025.3
20260831015516 64 145 0.9 1.7 0.00 0.02 0.02 77 1025.1
20260831014537 65 142 0.0 1.7 0.00 0.02 0.02 76 1025.1
20260831013517 65 137 0.0 1.7 0.00 0.02 0.02 77 1025.1
20260831012515 66 0.0 0.0 0.00 0.02 0.02 77 1025.1
20260831011515 67 0.0 0.0 0.00 0.02 0.02 75 1025.0
20260831010516 68 0.0 0.0 0.00 0.02 0.02 74 1025.1
20260831005516 68 135 0.0 0.9 0.00 0.02 0.02 70 1025.1
20260831004516 69 135 0.0 0.9 0.00 0.02 0.02 66 1025.3
20260831003637 69 135 0.0 0.9 0.00 0.02 0.02 65 1025.2
20260831002517 69 135 0.0 0.9 0.00 0.02 0.02 65 1025.1
20260831001535 68 136 0.0 2.6 0.00 0.02 0.02 65 1025.3
20260831000515 68 137 0.0 1.7 0.00 0.02 0.02 69 1025.6
20260830235516 67 141 0.9 3.5 0.00 0.02 0.02 69 1025.8
20260830234516 67 137 0.0 2.6 0.00 0.02 0.02 70 1025.9
20260830233517 66 0.0 0.0 0.00 0.02 0.02 72 1025.8
20260830232517 66 110 0.0 0.9 0.00 0.02 0.02 73 1025.8
20260830231514 65 125 0.0 0.9 0.01 0.02 0.02 74 1025.9
20260830230535 65 140 0.9 4.3 0.02 0.05 0.02 75 1026.3
20260830225516 65 132 0.9 2.6 0.02 0.05 0.02 75 1026.5
20260830224516 64 25 0.0 0.9 0.02 0.05 0.02 76 1026.2
20260830223520 64 25 0.0 0.9 0.02 0.05 0.02 76 1026.0
20260830222517 65 0.0 0.0 0.02 0.05 0.02 75 1025.9
20260830221537 66 266 0.0 0.9 0.01 0.04 0.01 71 1025.7
20260830220515 69 75 0.9 3.5 0.00 0.03 0.00 59 1026.1
20260830215515 70 87 0.9 4.3 0.00 0.03 0.00 52 1025.9
20260830214515 72 71 1.7 7.0 0.00 0.03 0.00 50 1025.3
20260830213536 73 78 1.7 7.0 0.00 0.03 0.00 47 1025.2
20260830212516 75 46 1.7 7.0 0.00 0.03 0.00 45 1024.9
20260830211516 80 14 3.5 10.4 0.00 0.03 0.00 43 1024.6
20260830210517 82 0.0 0.0 0.00 0.03 0.00 40 1023.9
20260830205515 81 0.0 0.0 0.00 0.03 0.00 39 1023.5
20260830204515 81 141 0.0 1.7 0.00 0.03 0.00 38 1023.3
20260830203535 81 144 0.0 1.7 0.00 0.03 0.00 39 1023.4
20260830202516 81 139 0.0 1.7 0.00 0.03 0.00 39 1023.4
20260830201516 81 140 0.0 1.7 0.00 0.03 0.00 38 1023.4
20260830200518 81 143 0.0 1.7 0.00 0.03 0.00 39 1023.3
20260830195517 81 0.0 0.0 0.00 0.03 0.00 39 1023.3
20260830194515 80 138 0.0 1.7 0.00 0.03 0.00 42 1023.3
20260830193515 80 147 0.0 0.9 0.00 0.03 0.00 43 1023.6
20260830192536 79 147 0.0 1.7 0.00 0.03 0.00 43 1023.7
20260830191516 79 0.0 0.0 0.00 0.03 0.00 46 1023.7
20260830190516 78 133 0.0 0.9 0.00 0.03 0.00 47 1023.8
20260830185517 78 124 0.0 1.7 0.00 0.03 0.00 46 1023.9
20260830184515 78 125 0.0 1.7 0.00 0.03 0.00 47 1024.0
20260830183515 78 141 0.0 1.7 0.00 0.03 0.00 47 1024.1
20260830182515 77 0.0 0.0 0.00 0.03 0.00 47 1024.3
20260830181516 77 260 0.0 0.9 0.00 0.03 0.00 46 1024.3
20260830180516 76 0.0 0.0 0.00 0.03 0.00 47 1024.5
20260830175536 76 0.0 0.0 0.00 0.03 0.00 49 1024.7
20260830174517 75 0.0 0.0 0.00 0.03 0.00 50 1024.9
20260830173515 75 0.0 0.0 0.00 0.03 0.00 50 1024.9
20260830172515 74 254 0.0 0.9 0.00 0.03 0.00 51 1025.1
20260830171556 74 0.0 0.0 0.00 0.03 0.00 53 1025.2
20260830170536 73 335 0.0 0.9 0.00 0.03 0.00 54 1025.2
20260830165516 72 350 0.0 0.9 0.00 0.03 0.00 55 1025.3
20260830164517 71 350 0.0 0.9 0.00 0.03 0.00 57 1025.4
20260830163517 70 350 0.0 0.9 0.00 0.03 0.00 59 1025.5
20260830162515 70 350 0.0 0.9 0.00 0.03 0.00 60 1025.4
20260830161515 69 0.0 0.0 0.00 0.03 0.00 61 1025.4
20260830160515 69 258 0.0 0.9 0.00 0.03 0.00 59 1025.3
20260830155516 69 0.0 0.0 0.00 0.03 0.00 59 1025.3
20260830154517 68 252 0.0 1.7 0.00 0.03 0.00 61 1025.1
20260830153517 68 270 0.0 0.9 0.00 0.03 0.00 62 1025.0
20260830152537 67 231 0.0 0.9 0.00 0.03 0.00 63 1024.8
20260830151535 67 0.0 0.0 0.00 0.03 0.00 66 1024.8
20260830150515 67 0.0 0.0 0.00 0.03 0.00 66 1024.8
20260830145556 66 0.0 0.0 0.00 0.03 0.00 67 1024.9
20260830144516 65 0.0 0.0 0.00 0.03 0.00 68 1025.0
20260830143536 65 0.0 0.0 0.00 0.03 0.00 68 1025.0
20260830142517 64 279 0.0 0.9 0.00 0.03 0.00 68 1024.9
20260830141514 63 276 0.0 0.9 0.00 0.03 0.00 69 1024.8
20260830140515 62 0.0 0.0 0.00 0.03 0.00 69 1024.7
20260830135515 62 0.0 0.0 0.00 0.03 0.00 71 1024.8